,,,PA_Meas_PMT16A,,PR_Meas_QMR101_102,,RH_Meas_QMH101,,SR_Meas_QMS101,,TA_Meas_QMH101,,GenWind,,GenWind,
date,time,status,PA,status,PR,status,RH,status,SR,status,TA,status,DirAvg,status,SpdAvg,
2008-12-27, 00:00:04,VALID,1009.07,VALID,0,VALID,94.0408,VALID,0,VALID,23.7525,VALID,153,VALID,0.0179687,
2008-12-27, 00:01:04,VALID,1009.07,VALID,0,VALID,94.0637,VALID,0,VALID,23.7738,VALID,153,VALID,0,
2008-12-27, 00:02:04,VALID,1009.08,VALID,0,VALID,94.056,VALID,0,VALID,23.7525,VALID,153,VALID,0,
2008-12-27, 00:03:04,VALID,1009.05,VALID,0,VALID,94.0789,VALID,0,VALID,23.7525,VALID,153,VALID,0,
2008-12-27, 00:04:04,VALID,1009.05,VALID,0,VALID,94.0865,VALID,0,VALID,23.7525,VALID,153,VALID,0,
2008-12-27, 00:05:04,VALID,1009.06,VALID,0,VALID,94.1018,VALID,0,VALID,23.7738,VALID,151,VALID,0,
2008-12-27, 00:06:04,VALID,1009.03,VALID,0,VALID,94.1323,VALID,0,VALID,23.772,VALID,151,VALID,0,
2008-12-27, 00:07:04,VALID,1009.06,VALID,0,VALID,94.1323,VALID,0,VALID,23.7525,VALID,151,VALID,0,
2008-12-27, 00:08:04,VALID,1009.05,VALID,0,VALID,94.1476,VALID,0,VALID,23.772,VALID,151,VALID,0,
2008-12-27, 00:09:04,VALID,1009.04,VALID,0,VALID,94.1399,VALID,0,VALID,23.733,VALID,130,VALID,0.0421875,
2008-12-27, 00:10:04,VALID,1009.02,VALID,0,VALID,94.1094,VALID,0.105969,VALID,23.7701,VALID,130,VALID,0.303125,
2008-12-27, 00:11:04,VALID,1009.01,VALID,0,VALID,94.1018,VALID,0.105969,VALID,23.7701,VALID,133,VALID,0.491406,
2008-12-27, 00:12:04,VALID,1008.99,VALID,0,VALID,94.0789,VALID,0,VALID,23.7507,VALID,133,VALID,0.0925781,
2008-12-27, 00:13:04,VALID,1008.98,VALID,0,VALID,94.056,VALID,0.105969,VALID,23.7896,VALID,132,VALID,0.332812,
2008-12-27, 00:14:04,VALID,1008.99,VALID,0,VALID,93.995,VALID,0,VALID,23.7507,VALID,131,VALID,0.367188,
2008-12-27, 00:15:04,VALID,1008.98,VALID,0,VALID,93.9798,VALID,0.105969,VALID,23.7489,VALID,131,VALID,0.154687,
2008-12-27, 00:16:04,VALID,1008.98,VALID,0,VALID,93.9417,VALID,0,VALID,23.7701,VALID,131,VALID,0.224609,
2008-12-27, 00:17:04,VALID,1008.95,VALID,0,VALID,93.9188,VALID,0,VALID,23.7896,VALID,131,VALID,0.398828,
2008-12-27, 00:18:04,VALID,1008.94,VALID,0,VALID,93.9035,VALID,0.105969,VALID,23.7701,VALID,131,VALID,0.154687,
2008-12-27, 00:19:04,VALID,1008.93,VALID,0,VALID,93.9112,VALID,0,VALID,23.7701,VALID,131,VALID,0.0507813,
2008-12-27, 00:20:04,VALID,1008.89,VALID,0,VALID,93.9645,VALID,0.105969,VALID,23.7896,VALID,131,VALID,0,
2008-12-27, 00:21:04,VALID,1008.89,VALID,0,VALID,93.9874,VALID,0,VALID,23.7701,VALID,131,VALID,0,
2008-12-27, 00:22:04,VALID,1008.89,VALID,0,VALID,93.9874,VALID,0,VALID,23.7701,VALID,131,VALID,0,
2008-12-27, 00:23:04,VALID,1008.86,VALID,0,VALID,94.0103,VALID,0.105969,VALID,23.7701,VALID,131,VALID,0,
2008-12-27, 00:24:04,VALID,1008.87,VALID,0,VALID,94.0484,VALID,0.105969,VALID,23.7896,VALID,131,VALID,0,
2008-12-27, 00:25:04,VALID,1008.86,VALID,0,VALID,94.0789,VALID,0,VALID,23.772,VALID,131,VALID,0,
2008-12-27, 00:26:04,VALID,1008.84,VALID,0,VALID,94.0713,VALID,0,VALID,23.7525,VALID,131,VALID,0,
2008-12-27, 00:27:04,VALID,1008.84,VALID,0,VALID,94.0332,VALID,0,VALID,23.733,VALID,131,VALID,0,
2008-12-27, 00:28:04,VALID,1008.8,VALID,0,VALID,94.0179,VALID,0,VALID,23.7543,VALID,131,VALID,0,
2008-12-27, 00:29:04,VALID,1008.77,VALID,0,VALID,94.0713,VALID,0,VALID,23.733,VALID,131,VALID,0,
2008-12-27, 00:30:04,VALID,1008.74,VALID,0,VALID,94.0942,VALID,0,VALID,23.7135,VALID,131,VALID,0,
2008-12-27, 00:31:04,VALID,1008.75,VALID,0,VALID,94.1552,VALID,0,VALID,23.733,VALID,76,VALID,0.138281,
2008-12-27, 00:32:04,VALID,1008.74,VALID,0,VALID,94.1704,VALID,0,VALID,23.694,VALID,76,VALID,0,
2008-12-27, 00:33:04,VALID,1008.75,VALID,0,VALID,94.2162,VALID,0,VALID,23.6745,VALID,76,VALID,0,
2008-12-27, 00:34:04,VALID,1008.72,VALID,0,VALID,94.2467,VALID,0,VALID,23.6745,VALID,76,VALID,0,
2008-12-27, 00:35:04,VALID,1008.7,VALID,0,VALID,94.2848,VALID,0,VALID,23.6356,VALID,76,VALID,0,
2008-12-27, 00:36:04,VALID,1008.68,VALID,0,VALID,94.3153,VALID,0,VALID,23.6356,VALID,76,VALID,0,
2008-12-27, 00:37:04,VALID,1008.68,VALID,0,VALID,94.3611,VALID,0,VALID,23.6373,VALID,76,VALID,0,
2008-12-27, 00:38:04,VALID,1008.67,VALID,0,VALID,94.3611,VALID,0,VALID,23.6161,VALID,76,VALID,0,
2008-12-27, 00:39:04,VALID,1008.63,VALID,0,VALID,94.3916,VALID,0,VALID,23.5966,VALID,76,VALID,0,
2008-12-27, 00:40:04,VALID,1008.64,VALID,0,VALID,94.4297,VALID,0,VALID,23.5966,VALID,76,VALID,0,
2008-12-27, 00:41:04,VALID,1008.63,VALID,0,VALID,94.4602,VALID,0,VALID,23.5771,VALID,76,VALID,0,
2008-12-27, 00:42:04,VALID,1008.61,VALID,0,VALID,94.4755,VALID,0,VALID,23.5771,VALID,76,VALID,0,
2008-12-27, 00:43:04,VALID,1008.63,VALID,0,VALID,94.506,VALID,0,VALID,23.5381,VALID,76,VALID,0,
2008-12-27, 00:44:04,VALID,1008.63,VALID,0,VALID,94.5365,VALID,0,VALID,23.5381,VALID,76,VALID,0,
2008-12-27, 00:45:04,VALID,1008.62,VALID,0,VALID,94.5365,VALID,0,VALID,23.5186,VALID,76,VALID,0,
2008-12-27, 00:46:04,VALID,1008.6,VALID,0,VALID,94.567,VALID,0,VALID,23.5186,VALID,76,VALID,0,
2008-12-27, 00:47:04,VALID,1008.57,VALID,0,VALID,94.5746,VALID,0,VALID,23.4992,VALID,76,VALID,0,
2008-12-27, 00:48:04,VALID,1008.59,VALID,0,VALID,94.5898,VALID,0,VALID,23.4992,VALID,76,VALID,0,
2008-12-27, 00:49:04,VALID,1008.55,VALID,0,VALID,94.628,VALID,0,VALID,23.4992,VALID,76,VALID,0,
2008-12-27, 00:50:04,VALID,1008.55,VALID,0,VALID,94.6661,VALID,0,VALID,23.4797,VALID,76,VALID,0,
2008-12-27, 00:51:04,VALID,1008.54,VALID,0,VALID,94.6814,VALID,0,VALID,23.4992,VALID,76,VALID,0,
2008-12-27, 00:52:04,VALID,1008.55,VALID,0,VALID,94.7042,VALID,0,VALID,23.4797,VALID,76,VALID,0,
2008-12-27, 00:53:04,VALID,1008.53,VALID,0,VALID,94.7424,VALID,0,VALID,23.4797,VALID,76,VALID,0,
2008-12-27, 00:54:04,VALID,1008.51,VALID,0,VALID,94.75,VALID,0,VALID,23.4797,VALID,64,VALID,0,
2008-12-27, 00:55:04,VALID,1008.52,VALID,0,VALID,94.7652,VALID,0,VALID,23.4797,VALID,63,VALID,0,
2008-12-27, 00:56:04,VALID,1008.52,VALID,0,VALID,94.7881,VALID,0,VALID,23.4797,VALID,63,VALID,0,
2008-12-27, 00:57:04,VALID,1008.52,VALID,0,VALID,94.8262,VALID,0,VALID,23.4797,VALID,63,VALID,0,
2008-12-27, 00:58:04,VALID,1008.5,VALID,0,VALID,94.8491,VALID,0,VALID,23.4602,VALID,63,VALID,0,
2008-12-27, 00:59:04,VALID,1008.48,VALID,0,VALID,94.872,VALID,0,VALID,23.4407,VALID,63,VALID,0,
2008-12-27, 01:00:04,VALID,1008.46,VALID,0,VALID,94.8644,VALID,0,VALID,23.4602,VALID,63,VALID,0,
2008-12-27, 01:01:04,VALID,1008.46,VALID,0,VALID,94.8644,VALID,0,VALID,23.4407,VALID,63,VALID,0,
2008-12-27, 01:02:04,VALID,1008.43,VALID,0,VALID,94.8949,VALID,0,VALID,23.4407,VALID,63,VALID,0,
2008-12-27, 01:03:04,VALID,1008.43,VALID,0,VALID,94.9025,VALID,0,VALID,23.4407,VALID,63,VALID,0,
2008-12-27, 01:04:04,VALID,1008.43,VALID,0,VALID,94.9178,VALID,0,VALID,23.4407,VALID,63,VALID,0,
2008-12-27, 01:05:04,VALID,1008.43,VALID,0,VALID,94.9025,VALID,0,VALID,23.4407,VALID,63,VALID,0,
2008-12-27, 01:06:04,VALID,1008.4,VALID,0,VALID,94.9406,VALID,0,VALID,23.4212,VALID,63,VALID,0,
2008-12-27, 01:07:04,VALID,1008.42,VALID,0,VALID,94.9635,VALID,0,VALID,23.4212,VALID,63,VALID,0,
2008-12-27, 01:08:04,VALID,1008.41,VALID,0,VALID,94.9483,VALID,0,VALID,23.4212,VALID,63,VALID,0,
2008-12-27, 01:09:04,VALID,1008.43,VALID,0,VALID,94.9711,VALID,0,VALID,23.4212,VALID,63,VALID,0,
2008-12-27, 01:10:04,VALID,1008.42,VALID,0,VALID,95.0093,VALID,0.105969,VALID,23.4194,VALID,63,VALID,0,
2008-12-27, 01:11:04,VALID,1008.4,VALID,0,VALID,95.0016,VALID,0.105969,VALID,23.4194,VALID,63,VALID,0,
2008-12-27, 01:12:04,VALID,1008.35,VALID,0,VALID,95.0016,VALID,0.105969,VALID,23.4,VALID,63,VALID,0,
2008-12-27, 01:13:04,VALID,1008.36,VALID,0,VALID,95.0169,VALID,0.105969,VALID,23.4,VALID,63,VALID,0,
2008-12-27, 01:14:04,VALID,1008.33,VALID,0,VALID,95.0093,VALID,0.105969,VALID,23.4017,VALID,63,VALID,0,
2008-12-27, 01:15:04,VALID,1008.31,VALID,0,VALID,95.0321,VALID,0.105969,VALID,23.3805,VALID,63,VALID,0,
2008-12-27, 01:16:04,VALID,1008.28,VALID,0,VALID,95.0398,VALID,0.105969,VALID,23.3805,VALID,63,VALID,0,
2008-12-27, 01:17:04,VALID,1008.29,VALID,0,VALID,95.055,VALID,0.105969,VALID,23.3805,VALID,63,VALID,0,
2008-12-27, 01:18:04,VALID,1008.24,VALID,0,VALID,95.0474,VALID,0.105969,VALID,23.361,VALID,63,VALID,0,
2008-12-27, 01:19:04,VALID,1008.24,VALID,0,VALID,95.0626,VALID,0.105969,VALID,23.361,VALID,63,VALID,0,
2008-12-27, 01:20:04,VALID,1008.26,VALID,0,VALID,95.0703,VALID,0.105969,VALID,23.3415,VALID,63,VALID,0,
2008-12-27, 01:21:04,VALID,1008.24,VALID,0,VALID,95.0855,VALID,0.105969,VALID,23.3415,VALID,63,VALID,0,
2008-12-27, 01:22:04,VALID,1008.25,VALID,0,VALID,95.0779,VALID,0.105969,VALID,23.3805,VALID,63,VALID,0,
2008-12-27, 01:23:04,VALID,1008.25,VALID,0,VALID,95.116,VALID,0.105969,VALID,23.361,VALID,63,VALID,0,
2008-12-27, 01:24:04,VALID,1008.23,VALID,0,VALID,95.116,VALID,0.105969,VALID,23.3415,VALID,63,VALID,0,
2008-12-27, 01:25:04,VALID,1008.21,VALID,0,VALID,95.1389,VALID,0,VALID,23.3628,VALID,63,VALID,0,
2008-12-27, 01:26:04,VALID,1008.22,VALID,0,VALID,95.1236,VALID,0,VALID,23.3628,VALID,63,VALID,0,
2008-12-27, 01:27:04,VALID,1008.21,VALID,0,VALID,95.1465,VALID,0,VALID,23.4017,VALID,63,VALID,0,
2008-12-27, 01:28:04,VALID,1008.21,VALID,0,VALID,95.1694,VALID,0,VALID,23.4017,VALID,63,VALID,0,
2008-12-27, 01:29:04,VALID,1008.22,VALID,0,VALID,95.1389,VALID,0,VALID,23.3628,VALID,63,VALID,0,
2008-12-27, 01:30:04,VALID,1008.2,VALID,0,VALID,95.1694,VALID,0,VALID,23.3823,VALID,63,VALID,0,
2008-12-27, 01:31:04,VALID,1008.18,VALID,0,VALID,95.1618,VALID,0,VALID,23.3823,VALID,63,VALID,0,
2008-12-27, 01:32:04,VALID,1008.16,VALID,0,VALID,95.1694,VALID,0,VALID,23.361,VALID,63,VALID,0,
2008-12-27, 01:33:04,VALID,1008.17,VALID,0,VALID,95.177,VALID,0,VALID,23.3628,VALID,63,VALID,0,
2008-12-27, 01:34:04,VALID,1008.14,VALID,0,VALID,95.1694,VALID,0,VALID,23.3628,VALID,63,VALID,0,
2008-12-27, 01:35:04,VALID,1008.16,VALID,0,VALID,95.1923,VALID,0,VALID,23.3628,VALID,63,VALID,0,
2008-12-27, 01:36:04,VALID,1008.16,VALID,0,VALID,95.2152,VALID,0,VALID,23.3628,VALID,63,VALID,0,
2008-12-27, 01:37:04,VALID,1008.15,VALID,0,VALID,95.2075,VALID,0,VALID,23.3628,VALID,63,VALID,0,
2008-12-27, 01:38:04,VALID,1008.13,VALID,0,VALID,95.2075,VALID,0,VALID,23.3823,VALID,63,VALID,0,
2008-12-27, 01:39:04,VALID,1008.13,VALID,0,VALID,95.2075,VALID,0,VALID,23.4017,VALID,63,VALID,0,
2008-12-27, 01:40:04,VALID,1008.09,VALID,0,VALID,95.2228,VALID,0,VALID,23.4017,VALID,63,VALID,0,
2008-12-27, 01:41:04,VALID,1008.11,VALID,0,VALID,95.238,VALID,0,VALID,23.3823,VALID,63,VALID,0,
2008-12-27, 01:42:04,VALID,1008.08,VALID,0,VALID,95.2228,VALID,0,VALID,23.361,VALID,63,VALID,0,
2008-12-27, 01:43:04,VALID,1008.02,VALID,0,VALID,95.2304,VALID,0,VALID,23.3628,VALID,63,VALID,0,
2008-12-27, 01:44:04,VALID,1008.02,VALID,0,VALID,95.238,VALID,0,VALID,23.361,VALID,63,VALID,0,
2008-12-27, 01:45:04,VALID,1008.01,VALID,0,VALID,95.238,VALID,0,VALID,23.3628,VALID,63,VALID,0,
2008-12-27, 01:46:04,VALID,1008.01,VALID,0,VALID,95.2304,VALID,0,VALID,23.3628,VALID,63,VALID,0,
2008-12-27, 01:47:04,VALID,1008,VALID,0,VALID,95.2457,VALID,0,VALID,23.3415,VALID,63,VALID,0,
2008-12-27, 01:48:04,VALID,1007.98,VALID,0,VALID,95.238,VALID,0,VALID,23.3628,VALID,63,VALID,0,
2008-12-27, 01:49:04,VALID,1007.95,VALID,0,VALID,95.238,VALID,0.105969,VALID,23.3628,VALID,63,VALID,0,
2008-12-27, 01:50:04,VALID,1007.89,VALID,0,VALID,95.2304,VALID,0,VALID,23.3433,VALID,63,VALID,0,
2008-12-27, 01:51:04,VALID,1007.89,VALID,0,VALID,95.2304,VALID,0,VALID,23.3433,VALID,63,VALID,0,
2008-12-27, 01:52:04,VALID,1007.87,VALID,0,VALID,95.238,VALID,0,VALID,23.3628,VALID,63,VALID,0,
2008-12-27, 01:53:04,VALID,1007.85,VALID,0,VALID,95.2685,VALID,0,VALID,23.3823,VALID,63,VALID,0,
2008-12-27, 01:54:04,VALID,1007.82,VALID,0,VALID,95.2533,VALID,0,VALID,23.3628,VALID,63,VALID,0,
2008-12-27, 01:55:04,VALID,1007.8,VALID,0,VALID,95.2533,VALID,0,VALID,23.3628,VALID,63,VALID,0,
2008-12-27, 01:56:04,VALID,1007.78,VALID,0,VALID,95.2457,VALID,0.105969,VALID,23.322,VALID,63,VALID,0,
2008-12-27, 01:57:04,VALID,1007.8,VALID,0,VALID,95.2609,VALID,0.105969,VALID,23.3433,VALID,63,VALID,0,
2008-12-27, 01:58:04,VALID,1007.77,VALID,0,VALID,95.2533,VALID,0,VALID,23.3238,VALID,63,VALID,0,
2008-12-27, 01:59:04,VALID,1007.77,VALID,0,VALID,95.2685,VALID,0,VALID,23.3433,VALID,63,VALID,0,
2008-12-27, 02:00:04,VALID,1007.76,VALID,0,VALID,95.2762,VALID,0,VALID,23.3433,VALID,63,VALID,0,
2008-12-27, 02:01:04,VALID,1007.76,VALID,0,VALID,95.2685,VALID,0,VALID,23.322,VALID,63,VALID,0,
2008-12-27, 02:02:04,VALID,1007.73,VALID,0,VALID,95.2685,VALID,0,VALID,23.3238,VALID,63,VALID,0,
2008-12-27, 02:03:04,VALID,1007.71,VALID,0,VALID,95.2533,VALID,0.105969,VALID,23.3238,VALID,63,VALID,0,
2008-12-27, 02:04:04,VALID,1007.74,VALID,0,VALID,95.2914,VALID,0,VALID,23.3043,VALID,63,VALID,0,
2008-12-27, 02:05:04,VALID,1007.73,VALID,0,VALID,95.2762,VALID,0,VALID,23.2848,VALID,63,VALID,0,
2008-12-27, 02:06:04,VALID,1007.71,VALID,0,VALID,95.2914,VALID,0,VALID,23.3043,VALID,63,VALID,0,
2008-12-27, 02:07:04,VALID,1007.7,VALID,0,VALID,95.2838,VALID,0,VALID,23.3043,VALID,55,VALID,0,
2008-12-27, 02:08:04,VALID,1007.68,VALID,0,VALID,95.3067,VALID,0,VALID,23.3043,VALID,55,VALID,0,
2008-12-27, 02:09:04,VALID,1007.66,VALID,0,VALID,95.2838,VALID,0,VALID,23.3043,VALID,55,VALID,0,
2008-12-27, 02:10:04,VALID,1007.63,VALID,0,VALID,95.3067,VALID,0,VALID,23.2848,VALID,55,VALID,0,
2008-12-27, 02:11:04,VALID,1007.63,VALID,0,VALID,95.299,VALID,0,VALID,23.2654,VALID,55,VALID,0,
2008-12-27, 02:12:04,VALID,1007.59,VALID,0,VALID,95.299,VALID,0,VALID,23.2636,VALID,55,VALID,0,
2008-12-27, 02:13:04,VALID,1007.57,VALID,0,VALID,95.2762,VALID,0,VALID,23.2654,VALID,55,VALID,0,
2008-12-27, 02:14:04,VALID,1007.58,VALID,0,VALID,95.3067,VALID,0,VALID,23.2654,VALID,55,VALID,0,
2008-12-27, 02:15:04,VALID,1007.55,VALID,0,VALID,95.3143,VALID,0,VALID,23.2654,VALID,55,VALID,0,
2008-12-27, 02:16:04,VALID,1007.56,VALID,0,VALID,95.299,VALID,0.105969,VALID,23.2441,VALID,55,VALID,0,
2008-12-27, 02:17:04,VALID,1007.53,VALID,0,VALID,95.3067,VALID,0,VALID,23.2264,VALID,55,VALID,0,
2008-12-27, 02:18:04,VALID,1007.49,VALID,0,VALID,95.3143,VALID,0,VALID,23.2069,VALID,55,VALID,0,
2008-12-27, 02:19:04,VALID,1007.53,VALID,0,VALID,95.3067,VALID,0,VALID,23.2282,VALID,55,VALID,0,
2008-12-27, 02:20:04,VALID,1007.5,VALID,0,VALID,95.3067,VALID,0,VALID,23.2069,VALID,55,VALID,0,
2008-12-27, 02:21:04,VALID,1007.46,VALID,0,VALID,95.3143,VALID,0,VALID,23.1874,VALID,55,VALID,0,
2008-12-27, 02:22:04,VALID,1007.48,VALID,0,VALID,95.3219,VALID,0,VALID,23.1679,VALID,55,VALID,0,
2008-12-27, 02:23:04,VALID,1007.44,VALID,0,VALID,95.3295,VALID,0,VALID,23.1874,VALID,38,VALID,0,
2008-12-27, 02:24:04,VALID,1007.45,VALID,0,VALID,95.3067,VALID,0,VALID,23.2051,VALID,350,VALID,0.309375,
2008-12-27, 02:25:04,VALID,1007.43,VALID,0,VALID,95.3372,VALID,0.105969,VALID,23.2069,VALID,348,VALID,0.462891,
2008-12-27, 02:26:04,VALID,1007.4,VALID,0,VALID,95.36,VALID,0,VALID,23.1857,VALID,347,VALID,0.205469,
2008-12-27, 02:27:04,VALID,1007.42,VALID,0,VALID,95.3448,VALID,0,VALID,23.2069,VALID,342,VALID,0,
2008-12-27, 02:28:04,VALID,1007.41,VALID,0,VALID,95.3372,VALID,0,VALID,23.1874,VALID,342,VALID,0,
2008-12-27, 02:29:04,VALID,1007.39,VALID,0,VALID,95.3753,VALID,0,VALID,23.1874,VALID,342,VALID,0.145703,
2008-12-27, 02:30:04,VALID,1007.37,VALID,0,VALID,95.36,VALID,0,VALID,23.1874,VALID,342,VALID,0,
2008-12-27, 02:31:04,VALID,1007.35,VALID,0,VALID,95.3524,VALID,0,VALID,23.1679,VALID,342,VALID,0.302344,
2008-12-27, 02:32:04,VALID,1007.34,VALID,0,VALID,95.3753,VALID,0,VALID,23.1467,VALID,41,VALID,0.483984,
2008-12-27, 02:33:04,VALID,1007.35,VALID,0,VALID,95.3753,VALID,0,VALID,23.1679,VALID,41,VALID,0.249609,
2008-12-27, 02:34:04,VALID,1007.36,VALID,0,VALID,95.3753,VALID,0,VALID,23.1467,VALID,41,VALID,0.335547,
2008-12-27, 02:35:04,VALID,1007.35,VALID,0,VALID,95.3753,VALID,0,VALID,23.1679,VALID,41,VALID,0,
2008-12-27, 02:36:04,VALID,1007.33,VALID,0,VALID,95.3677,VALID,0,VALID,23.1679,VALID,41,VALID,0,
2008-12-27, 02:37:04,VALID,1007.36,VALID,0,VALID,95.3753,VALID,0,VALID,23.1679,VALID,41,VALID,0,
2008-12-27, 02:38:04,VALID,1007.37,VALID,0,VALID,95.3753,VALID,0,VALID,23.1485,VALID,41,VALID,0,
2008-12-27, 02:39:04,VALID,1007.33,VALID,0,VALID,95.3753,VALID,0.105969,VALID,23.1485,VALID,41,VALID,0,
2008-12-27, 02:40:04,VALID,1007.32,VALID,0,VALID,95.3905,VALID,0,VALID,23.1485,VALID,41,VALID,0,
2008-12-27, 02:41:04,VALID,1007.34,VALID,0,VALID,95.3905,VALID,0,VALID,23.1485,VALID,41,VALID,0,
2008-12-27, 02:42:04,VALID,1007.34,VALID,0,VALID,95.3905,VALID,0,VALID,23.1272,VALID,41,VALID,0.00117188,
2008-12-27, 02:43:04,VALID,1007.34,VALID,0,VALID,95.4134,VALID,0,VALID,23.1485,VALID,41,VALID,0,
2008-12-27, 02:44:04,VALID,1007.34,VALID,0,VALID,95.4134,VALID,0,VALID,23.1467,VALID,41,VALID,0,
2008-12-27, 02:45:04,VALID,1007.33,VALID,0,VALID,95.4058,VALID,0,VALID,23.1485,VALID,41,VALID,0,
2008-12-27, 02:46:04,VALID,1007.31,VALID,0,VALID,95.3982,VALID,0,VALID,23.1485,VALID,41,VALID,0,
2008-12-27, 02:47:04,VALID,1007.29,VALID,0,VALID,95.4211,VALID,0,VALID,23.1272,VALID,41,VALID,0,
2008-12-27, 02:48:04,VALID,1007.27,VALID,0,VALID,95.3982,VALID,0,VALID,23.1485,VALID,41,VALID,0,
2008-12-27, 02:49:04,VALID,1007.29,VALID,0,VALID,95.4287,VALID,0,VALID,23.1077,VALID,41,VALID,0,
2008-12-27, 02:50:04,VALID,1007.25,VALID,0,VALID,95.4287,VALID,0,VALID,23.129,VALID,41,VALID,0,
2008-12-27, 02:51:04,VALID,1007.24,VALID,0,VALID,95.4363,VALID,0,VALID,23.129,VALID,41,VALID,0,
2008-12-27, 02:52:04,VALID,1007.2,VALID,0,VALID,95.4363,VALID,0,VALID,23.1485,VALID,41,VALID,0,
2008-12-27, 02:53:04,VALID,1007.21,VALID,0,VALID,95.4287,VALID,0,VALID,23.129,VALID,41,VALID,0,
2008-12-27, 02:54:04,VALID,1007.21,VALID,0,VALID,95.4439,VALID,0,VALID,23.1077,VALID,41,VALID,0,
2008-12-27, 02:55:04,VALID,1007.18,VALID,0,VALID,95.4287,VALID,0.105969,VALID,23.129,VALID,41,VALID,0,
2008-12-27, 02:56:04,VALID,1007.14,VALID,0,VALID,95.4363,VALID,0,VALID,23.129,VALID,41,VALID,0,
2008-12-27, 02:57:04,VALID,1007.14,VALID,0,VALID,95.4363,VALID,0,VALID,23.1095,VALID,41,VALID,0,
2008-12-27, 02:58:04,VALID,1007.12,VALID,0,VALID,95.4363,VALID,0,VALID,23.1095,VALID,41,VALID,0,
2008-12-27, 02:59:04,VALID,1007.09,VALID,0,VALID,95.4516,VALID,0,VALID,23.0883,VALID,41,VALID,0,
2008-12-27, 03:00:04,VALID,1007.11,VALID,0,VALID,95.4363,VALID,0,VALID,23.1077,VALID,41,VALID,0,
2008-12-27, 03:01:04,VALID,1007.09,VALID,0,VALID,95.4363,VALID,0,VALID,23.0883,VALID,41,VALID,0,
2008-12-27, 03:02:04,VALID,1007.09,VALID,0,VALID,95.4592,VALID,0,VALID,23.1095,VALID,41,VALID,0,
2008-12-27, 03:03:04,VALID,1007.08,VALID,0,VALID,95.4439,VALID,0,VALID,23.09,VALID,41,VALID,0,
2008-12-27, 03:04:04,VALID,1007.08,VALID,0,VALID,95.4668,VALID,0,VALID,23.129,VALID,41,VALID,0,
2008-12-27, 03:05:04,VALID,1007.04,VALID,0,VALID,95.4592,VALID,0,VALID,23.09,VALID,41,VALID,0,
2008-12-27, 03:06:04,VALID,1007.03,VALID,0,VALID,95.4592,VALID,0,VALID,23.129,VALID,41,VALID,0,
2008-12-27, 03:07:04,VALID,1007,VALID,0,VALID,95.4668,VALID,0,VALID,23.1095,VALID,41,VALID,0,
2008-12-27, 03:08:04,VALID,1007.02,VALID,0,VALID,95.4668,VALID,0,VALID,23.1095,VALID,41,VALID,0,
2008-12-27, 03:09:04,VALID,1007.03,VALID,0,VALID,95.4897,VALID,0,VALID,23.09,VALID,41,VALID,0,
2008-12-27, 03:10:04,VALID,1007.02,VALID,0,VALID,95.4821,VALID,0,VALID,23.1095,VALID,41,VALID,0,
2008-12-27, 03:11:04,VALID,1006.98,VALID,0,VALID,95.4821,VALID,0,VALID,23.1095,VALID,41,VALID,0,
2008-12-27, 03:12:04,VALID,1007,VALID,0,VALID,95.4668,VALID,0,VALID,23.0705,VALID,41,VALID,0,
2008-12-27, 03:13:04,VALID,1006.98,VALID,0,VALID,95.4592,VALID,0,VALID,23.09,VALID,41,VALID,0,
2008-12-27, 03:14:04,VALID,1006.96,VALID,0,VALID,95.4821,VALID,0,VALID,23.09,VALID,41,VALID,0,
2008-12-27, 03:15:04,VALID,1006.95,VALID,0,VALID,95.4821,VALID,0,VALID,23.09,VALID,41,VALID,0,
2008-12-27, 03:16:04,VALID,1006.92,VALID,0,VALID,95.4897,VALID,0,VALID,23.0705,VALID,41,VALID,0,
2008-12-27, 03:17:04,VALID,1006.93,VALID,0,VALID,95.4897,VALID,0,VALID,23.09,VALID,41,VALID,0,
2008-12-27, 03:18:04,VALID,1006.92,VALID,0,VALID,95.4897,VALID,0,VALID,23.09,VALID,41,VALID,0,
2008-12-27, 03:19:04,VALID,1006.9,VALID,0,VALID,95.4973,VALID,0,VALID,23.09,VALID,41,VALID,0,
2008-12-27, 03:20:04,VALID,1006.92,VALID,0,VALID,95.5126,VALID,0,VALID,23.0688,VALID,41,VALID,0,
2008-12-27, 03:21:04,VALID,1006.92,VALID,0,VALID,95.4744,VALID,0,VALID,23.09,VALID,41,VALID,0,
2008-12-27, 03:22:04,VALID,1006.91,VALID,0,VALID,95.5126,VALID,0,VALID,23.0705,VALID,41,VALID,0,
2008-12-27, 03:23:04,VALID,1006.91,VALID,0,VALID,95.4973,VALID,0,VALID,23.0705,VALID,41,VALID,0,
2008-12-27, 03:24:04,VALID,1006.86,VALID,0,VALID,95.4973,VALID,0,VALID,23.0705,VALID,41,VALID,0,
2008-12-27, 03:25:04,VALID,1006.85,VALID,0,VALID,95.5049,VALID,0,VALID,23.0511,VALID,41,VALID,0,
2008-12-27, 03:26:04,VALID,1006.86,VALID,0,VALID,95.5049,VALID,0,VALID,23.0511,VALID,41,VALID,0,
2008-12-27, 03:27:04,VALID,1006.82,VALID,0,VALID,95.4897,VALID,0,VALID,23.0316,VALID,41,VALID,0,
2008-12-27, 03:28:04,VALID,1006.83,VALID,0,VALID,95.5049,VALID,0,VALID,23.0705,VALID,41,VALID,0,
2008-12-27, 03:29:04,VALID,1006.83,VALID,0,VALID,95.5049,VALID,0,VALID,23.0511,VALID,41,VALID,0,
2008-12-27, 03:30:04,VALID,1006.84,VALID,0,VALID,95.5126,VALID,0,VALID,23.0511,VALID,41,VALID,0,
2008-12-27, 03:31:04,VALID,1006.82,VALID,0,VALID,95.4973,VALID,0,VALID,23.0316,VALID,41,VALID,0,
2008-12-27, 03:32:04,VALID,1006.81,VALID,0,VALID,95.5126,VALID,0,VALID,23.0316,VALID,41,VALID,0,
2008-12-27, 03:33:04,VALID,1006.82,VALID,0,VALID,95.5126,VALID,0,VALID,23.0316,VALID,41,VALID,0,
2008-12-27, 03:34:04,VALID,1006.81,VALID,0,VALID,95.5126,VALID,0,VALID,23.0316,VALID,41,VALID,0,
2008-12-27, 03:35:04,VALID,1006.78,VALID,0,VALID,95.5049,VALID,0,VALID,23.0316,VALID,41,VALID,0,
2008-12-27, 03:36:04,VALID,1006.8,VALID,0,VALID,95.5354,VALID,0,VALID,23.0121,VALID,41,VALID,0,
2008-12-27, 03:37:04,VALID,1006.81,VALID,0,VALID,95.5278,VALID,0,VALID,23.0333,VALID,41,VALID,0,
2008-12-27, 03:38:04,VALID,1006.81,VALID,0,VALID,95.5278,VALID,0,VALID,22.9909,VALID,41,VALID,0,
2008-12-27, 03:39:04,VALID,1006.82,VALID,0,VALID,95.5354,VALID,0,VALID,23.0121,VALID,41,VALID,0,
2008-12-27, 03:40:04,VALID,1006.82,VALID,0,VALID,95.5507,VALID,0,VALID,23.0121,VALID,41,VALID,0,
2008-12-27, 03:41:04,VALID,1006.78,VALID,0,VALID,95.5202,VALID,0,VALID,23.0121,VALID,41,VALID,0,
2008-12-27, 03:42:04,VALID,1006.77,VALID,0,VALID,95.5278,VALID,0,VALID,23.0121,VALID,41,VALID,0,
2008-12-27, 03:43:05,VALID,1006.75,VALID,0,VALID,95.5354,VALID,0,VALID,22.9926,VALID,41,VALID,0,
2008-12-27, 03:44:05,VALID,1006.72,VALID,0,VALID,95.5431,VALID,0,VALID,22.9943,VALID,41,VALID,0,
2008-12-27, 03:45:05,VALID,1006.71,VALID,0,VALID,95.5278,VALID,0,VALID,22.9536,VALID,41,VALID,0,
2008-12-27, 03:46:05,VALID,1006.71,VALID,0,VALID,95.5354,VALID,0,VALID,22.9749,VALID,41,VALID,0,
2008-12-27, 03:47:05,VALID,1006.72,VALID,0,VALID,95.5202,VALID,0,VALID,22.9342,VALID,41,VALID,0,
2008-12-27, 03:48:05,VALID,1006.72,VALID,0,VALID,95.5202,VALID,0,VALID,22.8952,VALID,41,VALID,0,
2008-12-27, 03:49:05,VALID,1006.72,VALID,0,VALID,95.5354,VALID,0,VALID,22.9147,VALID,41,VALID,0,
2008-12-27, 03:50:05,VALID,1006.7,VALID,0,VALID,95.5507,VALID,0,VALID,22.9147,VALID,41,VALID,0,
2008-12-27, 03:51:05,VALID,1006.71,VALID,0,VALID,95.5431,VALID,0,VALID,22.9164,VALID,41,VALID,0,
2008-12-27, 03:52:05,VALID,1006.74,VALID,0,VALID,95.5278,VALID,0,VALID,22.8757,VALID,41,VALID,0,
2008-12-27, 03:53:05,VALID,1006.74,VALID,0,VALID,95.5507,VALID,0,VALID,22.9164,VALID,41,VALID,0,
2008-12-27, 03:54:05,VALID,1006.74,VALID,0,VALID,95.5278,VALID,0,VALID,22.8952,VALID,41,VALID,0,
2008-12-27, 03:55:05,VALID,1006.74,VALID,0,VALID,95.5583,VALID,0,VALID,22.8935,VALID,41,VALID,0,
2008-12-27, 03:56:05,VALID,1006.74,VALID,0,VALID,95.5507,VALID,0,VALID,22.874,VALID,41,VALID,0,
2008-12-27, 03:57:05,VALID,1006.76,VALID,0,VALID,95.5431,VALID,0.105969,VALID,22.874,VALID,41,VALID,0,
2008-12-27, 03:58:05,VALID,1006.74,VALID,0,VALID,95.5431,VALID,0,VALID,22.835,VALID,41,VALID,0,